Location: Cabo di Oristano
(39.8500°N, 8.4333°E)
Time: 16:23:48
(UTC+00:00)

Meteor 1-31 Rocket - Pass Details

Date: 31 January 2023
Orbit: 510 x 535 km, 97.7° (Epoch: 31 March)

Event Time Altitude Azimuth Distance (km) Brightness Sun altitude
Rises 05:20:36 0° 10° (N) 2,694 6.3 -14.6°
Reaches altitude 10° 05:22:43 10° 9° (N) 1,802 5.4 -14.3°
Maximum altitude 05:26:36 76° 285° (WNW) 560 2.7 -13.5°
Drops below altitude 10° 05:30:29 10° 198° (SSW) 1,797 5.4 -12.8°
Sets 05:32:36 0° 197° (SSW) 2,685 6.3 -12.4°
